Regional Weather Roundup
Issued by NWS

Home | Current Version | Previous Version | Graphics & Text | Print | Product List | Glossary On
Versions: 1 2 3 4 5 6 7 8 9 10 11 12 13 14 15 16 17 18 19 20 21 22 23 24 25 26 27 28 29 30 31
000
ASUS45 KBOU 211807
RWRCO

WEATHER ROUNDUP FOR COLORADO
NATIONAL WEATHER SERVICE DENVER/BOULDER CO
1200 PM MDT TUE OCT 21 2014

NOTE: "FAIR" INDICATES FEW OR NO CLOUDS BELOW 12000 FEET WITH NO
SIGNIFICANT WEATHER AND/OR OBSTRUCTIONS TO VISIBILITY.

COZ001>005-013-030-031-211900-
...NORTHWEST COLORADO...

CITY           SKY/WX    TMP DP  RH WIND       PRES   REMARKS
CRAIG          PTSUNNY   62  40  44 S15G23    30.07F
HAYDEN         NOT AVBL
MEEKER         PTSUNNY   62  41  46 S16       30.08F
MOUNT WERNER   NOT AVBL
STEAMBOAT SPGS PTSUNNY   53  40  61 CALM      30.12S
WALDEN         CLOUDY    55  32  41 SW13G18   30.15F
$$

COZ006>008-011-211900-
...WEST CENTRAL VALLEYS...

CITY           SKY/WX    TMP DP  RH WIND       PRES   REMARKS
GRAND JUNCTION PTSUNNY   65  43  44 SE9       30.03F
MONTROSE       PTSUNNY   62  40  44 N8        30.12F
EAGLE          PTSUNNY   54  39  58 CALM      30.15F
RIFLE          CLOUDY    55  42  61 E8        30.10F
DELTA          PTSUNNY   67  41  38 CALM      30.09F
NUCLA          NOT AVBL
$$

COZ017>023-064>068-211900-
...SOUTHWEST COLORADO...

CITY           SKY/WX    TMP DP  RH WIND       PRES   REMARKS
DURANGO        CLOUDY    56  43  61 VRB5      30.20F
CORTEZ         CLOUDY    61  44  53 SW9       30.16F
PAGOSA SPRINGS CLOUDY    54  42  63 CALM      30.25F
TELLURIDE      CLOUDY    52  33  48 CALM      30.27F
WOLF CREEK PAS SNOW      32  32 100 SW12      30.40F VSB 1/2 WCI  23
$$

COZ009-010-012-014-032>034-037-058>063-211900-
...CENTRAL COLORADO...

CITY           SKY/WX    TMP DP  RH WIND       PRES   REMARKS
ASPEN          PTSUNNY   58  35  42 N6        30.15F
BUENA VISTA    PTSUNNY   56  36  46 E5        30.20F
COPPER MTN     CLOUDY    45  27  49 S12       30.38S
BERTHOUD PASS  PTSUNNY   37  34  87 W14       30.40F
COTTONWOOD PAS CLOUDY    52  34  50 CALM      30.29S
GUNNISON       PTSUNNY   52  34  50 N3        30.22F
KREMMLING      PTSUNNY   50  32  50 CALM        N/A
LEADVILLE      CLOUDY    44  31  60 W5        30.27F
SALIDA         PTSUNNY   63  37  38 SE6       30.24F
SUNLIGHT       LGT RAIN  39  37  93 CALM      30.33F
WILKERSON PASS NOT AVBL
$$

COZ069>075-211900-
...SAN LUIS VALLEY/SANGRE DE CRISTO MOUNTAINS...

CITY           SKY/WX    TMP DP  RH WIND       PRES   REMARKS
ALAMOSA        SUNNY     57  36  45 CALM      30.20F
LA VETA PASS   MOSUNNY   46  34  61 S15G22    30.31F
SAGUACHE       MOSUNNY   55  39  54 SE10      30.23F
$$

COZ035-036-038>040-211900-
...NORTHERN COLORADO FRONT RANGE...

CITY           SKY/WX    TMP DP  RH WIND       PRES   REMARKS
DENVER INTL AP MOSUNNY   72  35  25 VRB3      30.00F
DMNS CITY PARK   N/A     73  35  24 NW2       29.99F
AURORA         MOSUNNY   71  36  26 S6        30.02F
FRONT RANGE AP MOSUNNY   75  37  25 W8        30.02F
ERIE MUNI ARPT MOSUNNY   71  37  28 N3        29.99F
BOULDER MUN AP MOSUNNY   70  41  35 E3        29.99F
CENTENNIAL     MOSUNNY   71  34  25 W9        30.02F
BROOMFIELD     PTSUNNY   72  36  26 NE6       30.02F
FORT COLLINS   MOSUNNY   70  43  37 SE8       30.00F
LONGMONT       MOSUNNY   75  39  27 E6        30.00F
$$

COZ041-046-047-076>085-087-088-211900-
...PIKES PEAK/PALMER DIVIDE AND SOUTHERN FOOTHILLS...

CITY           SKY/WX    TMP DP  RH WIND       PRES   REMARKS
COLO. SPRINGS  MOSUNNY   66  40  38 S8        30.09F
A. F. ACADEMY  SUNNY     67  40  36 S10       30.08F
ELLICOTT       SUNNY     66  40  38 SW9       30.08F
FALCON         SUNNY     66  36  33 S9        30.12F
FORT CARSON    SUNNY     66  43  43 SE9       30.06F
LIMON          SUNNY     70  40  33 S13       30.05F
MONUMENT HILL  SUNNY     68  32  26 SW9       30.10F
TRINIDAD       PTSUNNY   71  39  31 SW20      30.09F
$$

COZ042>045-048>051-090-091-211900-
...NORTHEAST COLORADO...

CITY           SKY/WX    TMP DP  RH WIND       PRES   REMARKS
GREELEY ARPT   SUNNY     70  43  37 S6        29.99F
AKRON          SUNNY     75  43  31 SW9       29.99F
BURLINGTON     SUNNY     74  46  36 S15       30.03F
WRAY           SUNNY     79  46  31 S17G24    29.98F
STERLING       SUNNY     72  46  40 S8        29.97S
HOLYOKE        SUNNY     79  52  38 S15       29.97F
FORT MORGAN    SUNNY     69  38  31 SW6       29.99F
$$

COZ086-089-092>099-211900-
...SOUTHEAST COLORADO...

CITY           SKY/WX    TMP DP  RH WIND       PRES   REMARKS
PUEBLO         SUNNY     67  41  38 S7        30.03F
LA JUNTA       SUNNY     75  46  35 S8        30.02F
LAMAR          SUNNY     79  46  31 S16G28    30.00F
SPRINGFIELD    NOT AVBL
$$



USA.gov is the U.S. government's official web portal to all federal, state and local government web resources and services.